N264KA LIPB-EGPH

Flight info

Callsign N264KA
Flight time 2h 44m
Altitude 40000
Route DCT IVKAL T102 SUDUX L12 MOGTI P66 KPT L608 TEDGO DCT ADENU L608 TERLA N852 VELED DCT MIMVA L602 EMLON M79 TENDO DCT AGPED AGPED1E
Aircraft C525/L-SDFGRWY/S

Departure

Time 2026-04-21 16:45
Airport Bolzano Airport (LIPB)

Arrival

Time 2026-04-21 19:29
Airport Edinburgh Airport (EGPH)
Time Latitude Longitude Altitude Speed Heading
2026-04-21 16:19 46.46292 11.32903 824 ft 0 kts 100°
2026-04-21 16:21 46.46292 11.32902 824 ft 0 kts 277°
2026-04-21 16:43 46.46292 11.32900 824 ft 1 kts 278°
2026-04-21 16:43 46.46297 11.32864 824 ft 5 kts 280°
2026-04-21 16:43 46.46342 11.32846 824 ft 10 kts 11°
2026-04-21 16:44 46.46428 11.32869 824 ft 14 kts 10°
2026-04-21 16:44 46.46536 11.32898 823 ft 17 kts 12°
2026-04-21 16:44 46.46649 11.32927 823 ft 12 kts
2026-04-21 16:44 46.46687 11.32840 823 ft 10 kts 279°
2026-04-21 16:45 46.46505 11.32767 822 ft 59 kts 190°
2026-04-21 16:45 46.45899 11.32607 826 ft 114 kts 190°
2026-04-21 16:45 46.45075 11.32391 1154 ft 129 kts 186°
2026-04-21 16:45 46.44126 11.32138 1659 ft 143 kts 187°
2026-04-21 16:46 46.43161 11.31862 2297 ft 147 kts 189°
2026-04-21 16:46 46.42169 11.31492 2917 ft 154 kts 201°
2026-04-21 16:46 46.41205 11.30733 3558 ft 159 kts 209°
2026-04-21 16:46 46.40278 11.29866 4187 ft 164 kts 212°
2026-04-21 16:47 46.39336 11.28952 4811 ft 168 kts 212°
2026-04-21 16:47 46.38353 11.28035 5436 ft 171 kts 204°
2026-04-21 16:47 46.37221 11.27434 6089 ft 174 kts 194°
2026-04-21 16:47 46.36046 11.26949 6726 ft 178 kts 193°
2026-04-21 16:48 46.34849 11.26470 7356 ft 182 kts 194°
2026-04-21 16:48 46.33639 11.25974 7982 ft 185 kts 195°
2026-04-21 16:48 46.32396 11.25453 8609 ft 188 kts 195°
2026-04-21 16:48 46.31132 11.24911 9234 ft 191 kts 196°
2026-04-21 16:49 46.29872 11.24362 9863 ft 192 kts 197°
2026-04-21 16:49 46.28511 11.23763 10105 ft 218 kts 197°
2026-04-21 16:49 46.26940 11.23065 10128 ft 253 kts 197°
2026-04-21 16:49 46.25177 11.22277 10597 ft 264 kts 198°
2026-04-21 16:50 46.23433 11.21496 11221 ft 267 kts 198°
2026-04-21 16:50 46.21654 11.20698 11854 ft 269 kts 199°
2026-04-21 16:50 46.19856 11.19891 12484 ft 270 kts 199°
2026-04-21 16:50 46.18051 11.19081 13149 ft 271 kts 199°
2026-04-21 16:51 46.16267 11.18281 13791 ft 271 kts 199°
2026-04-21 16:51 46.14439 11.17461 14436 ft 271 kts 200°
2026-04-21 16:51 46.12611 11.16642 15085 ft 270 kts 201°
2026-04-21 16:51 46.10746 11.15805 15751 ft 268 kts 202°
2026-04-21 16:52 46.08794 11.15431 16401 ft 277 kts 176°
2026-04-21 16:52 46.06876 11.16687 17105 ft 284 kts 142°
2026-04-21 16:52 46.05689 11.19269 17808 ft 284 kts 108°
2026-04-21 16:52 46.05280 11.22219 18477 ft 277 kts 83°
2026-04-21 16:53 46.05903 11.24880 19153 ft 257 kts 46°
2026-04-21 16:53 46.07249 11.26412 19831 ft 230 kts 13°
2026-04-21 16:53 46.08700 11.27133 20475 ft 218 kts
2026-04-21 16:53 46.10125 11.27615 21120 ft 209 kts
2026-04-21 16:54 46.11521 11.27991 21765 ft 201 kts 357°
2026-04-21 16:54 46.12859 11.28298 22417 ft 191 kts 355°
2026-04-21 16:54 46.14158 11.28553 22830 ft 192 kts 353°
2026-04-21 16:54 46.15497 11.28773 23171 ft 197 kts 352°
2026-04-21 16:55 46.16869 11.28972 23510 ft 202 kts 352°
2026-04-21 16:55 46.18297 11.29161 23859 ft 207 kts 352°
2026-04-21 16:55 46.19732 11.29339 24190 ft 213 kts 352°
2026-04-21 16:55 46.21225 11.29516 24512 ft 218 kts 352°
2026-04-21 16:56 46.22762 11.29691 24835 ft 224 kts 352°
2026-04-21 16:56 46.24336 11.29866 25176 ft 228 kts 352°
2026-04-21 16:56 46.25930 11.30040 25509 ft 234 kts 352°
2026-04-21 16:56 46.27556 11.30215 25818 ft 239 kts 352°
2026-04-21 16:57 46.29240 11.30396 26141 ft 244 kts 352°
2026-04-21 16:57 46.30940 11.30576 26443 ft 248 kts 352°
2026-04-21 16:57 46.32660 11.30758 26744 ft 252 kts 352°
2026-04-21 16:57 46.34433 11.30945 27042 ft 256 kts 352°
2026-04-21 16:58 46.36209 11.31133 27341 ft 259 kts 353°
2026-04-21 16:58 46.38009 11.31323 27642 ft 262 kts 352°
2026-04-21 16:58 46.39829 11.31515 27939 ft 264 kts 352°
2026-04-21 16:58 46.41664 11.31709 28231 ft 266 kts 353°
2026-04-21 16:59 46.43520 11.31906 28523 ft 268 kts 352°
2026-04-21 16:59 46.45373 11.32031 28810 ft 262 kts 345°
2026-04-21 16:59 46.47056 11.31355 29111 ft 247 kts 328°
2026-04-21 16:59 46.48588 11.30236 29404 ft 245 kts 323°
2026-04-21 17:00 46.50068 11.29023 29690 ft 245 kts 323°
2026-04-21 17:00 46.51540 11.27779 29979 ft 245 kts 322°
2026-04-21 17:00 46.52516 11.26948 30170 ft 245 kts 322°
2026-04-21 17:00 46.54452 11.25293 30547 ft 245 kts 321°
2026-04-21 17:01 46.55927 11.24029 30838 ft 244 kts 322°
2026-04-21 17:01 46.57379 11.22782 31124 ft 243 kts 322°
2026-04-21 17:01 46.58819 11.21546 31405 ft 243 kts 322°
2026-04-21 17:01 46.60283 11.20286 31689 ft 242 kts 322°
2026-04-21 17:02 46.61722 11.19048 31970 ft 241 kts 322°
2026-04-21 17:02 46.63142 11.17825 32250 ft 240 kts 322°
2026-04-21 17:02 46.64568 11.16596 32533 ft 238 kts 322°
2026-04-21 17:02 46.65992 11.15368 32813 ft 236 kts 322°
2026-04-21 17:03 46.67394 11.14157 33078 ft 235 kts 322°
2026-04-21 17:03 46.68797 11.12945 33357 ft 233 kts 323°
2026-04-21 17:03 46.70161 11.11766 33626 ft 231 kts 322°
2026-04-21 17:03 46.71530 11.10582 33864 ft 228 kts 323°
2026-04-21 17:04 46.72890 11.09405 34094 ft 225 kts 322°
2026-04-21 17:04 46.74230 11.08245 34347 ft 222 kts 323°
2026-04-21 17:04 46.75544 11.07107 34596 ft 218 kts 323°
2026-04-21 17:04 46.76828 11.05994 34837 ft 214 kts 323°
2026-04-21 17:05 46.78117 11.04874 34923 ft 217 kts 323°
2026-04-21 17:05 46.79473 11.03910 35021 ft 225 kts 335°
2026-04-21 17:05 46.81032 11.03407 35132 ft 231 kts 342°
2026-04-21 17:05 46.82632 11.03069 35265 ft 234 kts 344°
2026-04-21 17:06 46.84247 11.02766 35385 ft 236 kts 343°
2026-04-21 17:06 46.85864 11.02468 35492 ft 238 kts 344°
2026-04-21 17:06 46.87515 11.02164 35605 ft 239 kts 344°
2026-04-21 17:06 46.89146 11.01861 35713 ft 241 kts 344°
2026-04-21 17:07 46.90831 11.01546 35816 ft 243 kts 344°
2026-04-21 17:07 46.92520 11.01228 35919 ft 244 kts 345°
2026-04-21 17:07 46.94174 11.00858 36030 ft 242 kts 338°
2026-04-21 17:07 46.95764 11.00054 36156 ft 239 kts 332°
2026-04-21 17:08 46.97286 10.99100 36264 ft 239 kts 330°
2026-04-21 17:08 46.98785 10.98119 36362 ft 240 kts 329°
2026-04-21 17:08 47.00313 10.97112 36472 ft 241 kts 330°
2026-04-21 17:08 47.01842 10.96104 36581 ft 242 kts 330°
2026-04-21 17:09 47.04927 10.94075 36790 ft 243 kts 330°
2026-04-21 17:09 47.06455 10.93072 36902 ft 244 kts 331°
2026-04-21 17:09 47.08017 10.92046 37011 ft 244 kts 331°
2026-04-21 17:10 47.09558 10.91034 37119 ft 244 kts 331°
2026-04-21 17:10 47.11111 10.90015 37227 ft 244 kts 331°
2026-04-21 17:10 47.12649 10.89005 37334 ft 245 kts 332°
2026-04-21 17:10 47.14211 10.87979 37439 ft 245 kts 331°
2026-04-21 17:11 47.15763 10.86959 37551 ft 245 kts 332°
2026-04-21 17:11 47.17302 10.85947 37654 ft 245 kts 332°
2026-04-21 17:11 47.18864 10.84920 37757 ft 245 kts 332°
2026-04-21 17:11 47.20407 10.83904 37861 ft 244 kts 332°
2026-04-21 17:12 47.21947 10.82890 37957 ft 243 kts 332°
2026-04-21 17:12 47.23499 10.81868 38066 ft 242 kts 332°
2026-04-21 17:12 47.25032 10.80856 38171 ft 241 kts 332°
2026-04-21 17:12 47.26551 10.79855 38278 ft 240 kts 332°
2026-04-21 17:13 47.28065 10.78856 38387 ft 239 kts 332°
2026-04-21 17:13 47.29568 10.77863 38497 ft 238 kts 332°
2026-04-21 17:13 47.31083 10.76862 38591 ft 237 kts 332°
2026-04-21 17:13 47.32585 10.75867 38680 ft 236 kts 332°
2026-04-21 17:14 47.34062 10.74890 38770 ft 235 kts 332°
2026-04-21 17:14 47.35558 10.73899 38868 ft 234 kts 332°
2026-04-21 17:14 47.37024 10.72928 38949 ft 233 kts 332°
2026-04-21 17:14 47.38495 10.71948 39036 ft 231 kts 330°
2026-04-21 17:15 47.39863 10.70764 39126 ft 228 kts 324°
2026-04-21 17:15 47.41177 10.69452 39217 ft 226 kts 323°
2026-04-21 17:15 47.42458 10.68136 39320 ft 223 kts 323°
2026-04-21 17:15 47.43719 10.66836 39398 ft 221 kts 323°
2026-04-21 17:16 47.44976 10.65541 39491 ft 219 kts 323°
2026-04-21 17:16 47.46200 10.64283 39584 ft 216 kts 323°
2026-04-21 17:16 47.47432 10.63019 39676 ft 213 kts 323°
2026-04-21 17:16 47.48647 10.61773 39770 ft 210 kts 323°
2026-04-21 17:17 47.49826 10.60565 39852 ft 207 kts 323°
2026-04-21 17:17 47.51001 10.59361 39932 ft 203 kts 323°
2026-04-21 17:17 47.52142 10.58193 40005 ft 199 kts 323°
2026-04-21 17:17 47.53267 10.57041 40078 ft 195 kts 324°
2026-04-21 17:18 47.54385 10.55896 40078 ft 195 kts 324°
2026-04-21 17:18 47.55489 10.54762 40095 ft 193 kts 323°
2026-04-21 17:18 47.56586 10.53629 40097 ft 193 kts 323°
2026-04-21 17:18 47.57673 10.52506 40090 ft 192 kts 323°
2026-04-21 17:19 47.58764 10.51379 40089 ft 191 kts 323°
2026-04-21 17:19 47.59851 10.50255 40093 ft 190 kts 323°
2026-04-21 17:19 47.60930 10.49139 40084 ft 189 kts 323°
2026-04-21 17:19 47.62009 10.48023 40093 ft 188 kts 323°
2026-04-21 17:20 47.63079 10.46915 40083 ft 186 kts 323°
2026-04-21 17:20 47.64137 10.45820 40087 ft 185 kts 323°
2026-04-21 17:20 47.65175 10.44745 40091 ft 183 kts 323°
2026-04-21 17:20 47.66207 10.43677 40087 ft 181 kts 323°
2026-04-21 17:21 47.67239 10.42607 40090 ft 179 kts 323°
2026-04-21 17:21 47.68234 10.41575 40080 ft 177 kts 323°
2026-04-21 17:21 47.69305 10.40460 39563 ft 204 kts 323°
2026-04-21 17:21 47.70540 10.39172 39024 ft 230 kts 323°
2026-04-21 17:22 47.71911 10.37743 38472 ft 254 kts 324°
2026-04-21 17:22 47.73351 10.36247 38515 ft 255 kts 324°
2026-04-21 17:22 47.74808 10.34720 38519 ft 258 kts 322°
2026-04-21 17:22 47.76226 10.33064 38518 ft 261 kts 320°
2026-04-21 17:23 47.77632 10.31349 38524 ft 264 kts 320°
2026-04-21 17:23 47.79053 10.29603 38532 ft 268 kts 319°
2026-04-21 17:23 47.80497 10.27829 38531 ft 271 kts 319°
2026-04-21 17:23 47.81954 10.26042 38560 ft 273 kts 319°
2026-04-21 17:24 47.83419 10.24248 38641 ft 274 kts 319°
2026-04-21 17:24 47.84896 10.22439 38718 ft 275 kts 319°
2026-04-21 17:24 47.86367 10.20638 38786 ft 275 kts 320°
2026-04-21 17:24 47.87830 10.18846 38857 ft 276 kts 320°
2026-04-21 17:25 47.89329 10.17010 38932 ft 277 kts 320°
2026-04-21 17:25 47.90793 10.15216 39013 ft 277 kts 320°
2026-04-21 17:25 47.92292 10.13379 39085 ft 277 kts 320°
2026-04-21 17:25 47.93766 10.11571 39163 ft 278 kts 320°
2026-04-21 17:26 47.95259 10.09739 39234 ft 278 kts 320°
2026-04-21 17:26 47.96746 10.07912 39303 ft 278 kts 320°
2026-04-21 17:26 47.98230 10.06089 39380 ft 278 kts 320°
2026-04-21 17:26 47.99723 10.04253 39451 ft 278 kts 320°
2026-04-21 17:27 48.01217 10.02415 39450 ft 281 kts 320°
2026-04-21 17:27 48.02731 10.00549 39454 ft 284 kts 320°
2026-04-21 17:27 48.04248 9.98679 39506 ft 284 kts 320°
2026-04-21 17:27 48.05769 9.96804 39579 ft 284 kts 320°
2026-04-21 17:28 48.07294 9.94921 39653 ft 284 kts 320°
2026-04-21 17:28 48.08814 9.93044 39733 ft 284 kts 320°
2026-04-21 17:28 48.10346 9.91149 39809 ft 284 kts 320°
2026-04-21 17:28 48.11858 9.89278 39883 ft 284 kts 320°
2026-04-21 17:29 48.13377 9.87398 39959 ft 284 kts 320°
2026-04-21 17:29 48.14878 9.85537 40037 ft 284 kts 320°
2026-04-21 17:29 48.16414 9.83633 40102 ft 284 kts 320°
2026-04-21 17:29 48.17932 9.81747 40121 ft 285 kts 320°
2026-04-21 17:30 48.19461 9.79848 40124 ft 288 kts 320°
2026-04-21 17:30 48.20988 9.77950 40120 ft 290 kts 320°
2026-04-21 17:30 48.22548 9.76008 40119 ft 293 kts 320°
2026-04-21 17:30 48.24127 9.74042 40116 ft 295 kts 320°
2026-04-21 17:31 48.25690 9.72094 40122 ft 297 kts 320°
2026-04-21 17:31 48.27299 9.70087 40119 ft 300 kts 320°
2026-04-21 17:31 48.30511 9.66075 40106 ft 304 kts 320°
2026-04-21 17:32 48.33787 9.61976 40112 ft 308 kts 320°
2026-04-21 17:32 48.37069 9.57804 40100 ft 312 kts 320°
2026-04-21 17:33 48.40369 9.53578 40110 ft 315 kts 320°
2026-04-21 17:33 48.43729 9.49268 40105 ft 318 kts 320°
2026-04-21 17:34 48.47097 9.44941 40110 ft 321 kts 320°
2026-04-21 17:34 48.50490 9.40577 40111 ft 323 kts 320°
2026-04-21 17:35 48.53912 9.36168 40121 ft 325 kts 320°
2026-04-21 17:35 48.57328 9.31758 40129 ft 327 kts 319°
2026-04-21 17:36 48.60804 9.27264 40137 ft 329 kts 319°
2026-04-21 17:36 48.64067 9.22463 40150 ft 331 kts 314°
2026-04-21 17:37 48.67220 9.17387 40150 ft 333 kts 314°
2026-04-21 17:37 48.70377 9.12292 40151 ft 334 kts 314°
2026-04-21 17:38 48.73542 9.07189 40148 ft 336 kts 314°
2026-04-21 17:38 48.76750 9.02013 40142 ft 337 kts 314°
2026-04-21 17:39 48.79953 8.96840 40142 ft 338 kts 314°
2026-04-21 17:39 48.83155 8.91660 40141 ft 339 kts 314°
2026-04-21 17:40 48.86367 8.86457 40146 ft 340 kts 314°
2026-04-21 17:40 48.89600 8.81208 40149 ft 340 kts 314°
2026-04-21 17:41 48.92808 8.75990 40153 ft 341 kts 314°
2026-04-21 17:41 48.96049 8.70708 40153 ft 341 kts 314°
2026-04-21 17:42 48.99256 8.65472 40160 ft 342 kts 314°
2026-04-21 17:42 49.02497 8.60168 40164 ft 342 kts 314°
2026-04-21 17:43 49.05736 8.54857 40166 ft 343 kts 314°
2026-04-21 17:43 49.08953 8.49571 40164 ft 343 kts 314°
2026-04-21 17:44 49.12187 8.44246 40168 ft 344 kts 314°
2026-04-21 17:44 49.15448 8.38866 40171 ft 345 kts 314°
2026-04-21 17:45 49.18696 8.33496 40171 ft 345 kts 313°
2026-04-21 17:45 49.21931 8.28136 40175 ft 346 kts 314°
2026-04-21 17:46 49.25199 8.22711 40174 ft 347 kts 314°
2026-04-21 17:46 49.28455 8.17293 40171 ft 348 kts 314°
2026-04-21 17:47 49.31723 8.11845 40173 ft 349 kts 314°
2026-04-21 17:47 49.35003 8.06365 40171 ft 349 kts 314°
2026-04-21 17:48 49.38282 8.00874 40168 ft 350 kts 314°
2026-04-21 17:48 49.41550 7.95391 40167 ft 351 kts 314°
2026-04-21 17:49 49.44834 7.89870 40166 ft 351 kts 314°
2026-04-21 17:49 49.48111 7.84347 40161 ft 352 kts 314°
2026-04-21 17:50 49.51396 7.78801 40156 ft 352 kts 314°
2026-04-21 17:50 49.54692 7.73224 40166 ft 353 kts 314°
2026-04-21 17:51 49.57968 7.67667 40158 ft 353 kts 314°
2026-04-21 17:51 49.61266 7.62062 40161 ft 353 kts 314°
2026-04-21 17:52 49.64537 7.56491 40163 ft 353 kts 314°
2026-04-21 17:52 49.67828 7.50873 40164 ft 354 kts 314°
2026-04-21 17:53 49.71114 7.45251 40164 ft 354 kts 314°
2026-04-21 17:53 49.74392 7.39632 40174 ft 354 kts 313°
2026-04-21 17:54 49.77690 7.33964 40167 ft 354 kts 313°
2026-04-21 17:54 49.80975 7.28307 40174 ft 355 kts 313°
2026-04-21 17:55 49.84258 7.22642 40164 ft 355 kts 313°
2026-04-21 17:55 49.87528 7.16985 40174 ft 355 kts 313°
2026-04-21 17:56 49.90821 7.11278 40171 ft 355 kts 313°
2026-04-21 17:56 49.94093 7.05593 40171 ft 356 kts 313°
2026-04-21 17:57 49.97400 6.99836 40177 ft 356 kts 313°
2026-04-21 17:57 50.00713 6.94054 40174 ft 356 kts 313°
2026-04-21 17:58 50.03639 6.87832 40170 ft 358 kts 302°
2026-04-21 17:58 50.06065 6.81091 40173 ft 358 kts 301°
2026-04-21 17:59 50.08450 6.74340 40171 ft 358 kts 301°
2026-04-21 17:59 50.10855 6.67527 40162 ft 359 kts 301°
2026-04-21 18:00 50.13250 6.60737 40163 ft 360 kts 301°
2026-04-21 18:00 50.15665 6.53880 40166 ft 360 kts 301°
2026-04-21 18:01 50.18128 6.47156 40158 ft 359 kts 308°
2026-04-21 18:01 50.21599 6.41645 40164 ft 357 kts 321°
2026-04-21 18:02 50.25389 6.36665 40164 ft 357 kts 322°
2026-04-21 18:02 50.29194 6.31721 40172 ft 357 kts 321°
2026-04-21 18:03 50.32982 6.26796 40174 ft 358 kts 321°
2026-04-21 18:03 50.36794 6.21829 40181 ft 358 kts 321°
2026-04-21 18:04 50.40610 6.16850 40185 ft 358 kts 321°
2026-04-21 18:04 50.44425 6.11861 40189 ft 359 kts 321°
2026-04-21 18:05 50.48250 6.06848 40189 ft 359 kts 321°
2026-04-21 18:05 50.52068 6.01834 40192 ft 359 kts 321°
2026-04-21 18:06 50.55884 5.96810 40190 ft 360 kts 321°
2026-04-21 18:06 50.59721 5.91749 40202 ft 360 kts 321°
2026-04-21 18:07 50.63360 5.86411 40211 ft 361 kts 310°
2026-04-21 18:07 50.65684 5.79415 40218 ft 366 kts 292°
2026-04-21 18:08 50.68048 5.72470 40212 ft 361 kts 311°
2026-04-21 18:08 50.69813 5.69681 40221 ft 359 kts 322°
2026-04-21 18:08 50.71861 5.67514 40219 ft 358 kts 332°
2026-04-21 18:09 50.76411 5.64326 40218 ft 358 kts 339°
2026-04-21 18:09 50.81066 5.61731 40222 ft 358 kts 342°
2026-04-21 18:10 50.85817 5.59365 40220 ft 359 kts 343°
2026-04-21 18:10 50.90625 5.57116 40215 ft 359 kts 344°
2026-04-21 18:11 50.95388 5.54962 40227 ft 359 kts 345°
2026-04-21 18:11 51.00215 5.52817 40217 ft 360 kts 345°
2026-04-21 18:12 51.04991 5.50712 40217 ft 360 kts 345°
2026-04-21 18:12 51.09826 5.48590 40218 ft 360 kts 345°
2026-04-21 18:13 51.14628 5.46483 40217 ft 361 kts 345°
2026-04-21 18:13 51.19482 5.44419 40222 ft 361 kts 347°
2026-04-21 18:14 51.26846 5.41948 40217 ft 362 kts 348°
2026-04-21 18:15 51.31720 5.39914 40230 ft 362 kts 345°
2026-04-21 18:15 51.36545 5.37793 40236 ft 363 kts 345°
2026-04-21 18:15 51.38877 5.36331 40237 ft 364 kts 334°
2026-04-21 18:16 51.41056 5.34221 40240 ft 364 kts 327°
2026-04-21 18:16 51.45182 5.29584 40244 ft 365 kts 326°
2026-04-21 18:17 51.49291 5.24845 40251 ft 365 kts 325°
2026-04-21 18:17 51.53401 5.20090 40252 ft 366 kts 325°
2026-04-21 18:18 51.57528 5.15304 40251 ft 366 kts 325°
2026-04-21 18:18 51.61628 5.10541 40255 ft 366 kts 325°
2026-04-21 18:19 51.65742 5.05750 40259 ft 366 kts 325°
2026-04-21 18:19 51.69864 5.00939 40259 ft 366 kts 325°
2026-04-21 18:20 51.73988 4.96115 40256 ft 367 kts 326°
2026-04-21 18:20 51.78092 4.91302 40261 ft 367 kts 325°
2026-04-21 18:21 51.82215 4.86457 40268 ft 367 kts 325°
2026-04-21 18:21 51.86333 4.81606 40267 ft 367 kts 326°
2026-04-21 18:22 51.90454 4.76741 40274 ft 367 kts 326°
2026-04-21 18:22 51.94575 4.71864 40277 ft 367 kts 326°
2026-04-21 18:23 51.98667 4.67010 40277 ft 368 kts 326°
2026-04-21 18:23 52.02772 4.62130 40282 ft 368 kts 326°
2026-04-21 18:24 52.06899 4.57212 40282 ft 368 kts 326°
2026-04-21 18:24 52.11008 4.52304 40286 ft 368 kts 325°
2026-04-21 18:25 52.15133 4.47366 40292 ft 369 kts 326°
2026-04-21 18:25 52.19240 4.42437 40292 ft 370 kts 326°
2026-04-21 18:26 52.23366 4.37474 40292 ft 370 kts 325°
2026-04-21 18:26 52.27491 4.32500 40297 ft 371 kts 324°
2026-04-21 18:27 52.31630 4.27497 40297 ft 371 kts 325°
2026-04-21 18:27 52.35773 4.22478 40296 ft 372 kts 325°
2026-04-21 18:28 52.39933 4.17427 40295 ft 372 kts 325°
2026-04-21 18:28 52.44080 4.12378 40308 ft 372 kts 325°
2026-04-21 18:29 52.48206 4.07343 40309 ft 373 kts 325°
2026-04-21 18:29 52.52365 4.02256 40311 ft 373 kts 325°
2026-04-21 18:30 52.56500 3.97187 40317 ft 373 kts 325°
2026-04-21 18:30 52.60640 3.92098 40320 ft 373 kts 325°
2026-04-21 18:31 52.64801 3.86971 40326 ft 374 kts 325°
2026-04-21 18:31 52.68974 3.81817 40329 ft 374 kts 325°
2026-04-21 18:32 52.73124 3.76679 40329 ft 374 kts 325°
2026-04-21 18:32 52.77269 3.71535 40330 ft 374 kts 325°
2026-04-21 18:33 52.81461 3.66319 40333 ft 374 kts 325°
2026-04-21 18:33 52.85730 3.60994 40334 ft 375 kts 325°
2026-04-21 18:34 52.89888 3.55795 40336 ft 375 kts 325°
2026-04-21 18:34 52.94078 3.50543 40338 ft 375 kts 325°
2026-04-21 18:35 52.97590 3.46130 40333 ft 375 kts 325°
2026-04-21 18:35 53.02538 3.39897 40342 ft 375 kts 325°
2026-04-21 18:36 53.06717 3.34456 40335 ft 377 kts 318°
2026-04-21 18:36 53.08544 3.30930 40340 ft 379 kts 307°
2026-04-21 18:36 53.09940 3.26774 40345 ft 382 kts 296°
2026-04-21 18:37 53.11591 3.17700 40351 ft 385 kts 286°
2026-04-21 18:37 53.12916 3.08436 40350 ft 386 kts 285°
2026-04-21 18:38 53.14192 2.99083 40355 ft 386 kts 285°
2026-04-21 18:38 53.15437 2.89730 40352 ft 387 kts 285°
2026-04-21 18:39 53.16662 2.80390 40355 ft 388 kts 284°
2026-04-21 18:39 53.17892 2.70906 40353 ft 388 kts 284°
2026-04-21 18:40 53.19105 2.61473 40356 ft 389 kts 284°
2026-04-21 18:40 53.20147 2.53515 40349 ft 388 kts 288°
2026-04-21 18:40 53.21643 2.47596 40356 ft 384 kts 301°
2026-04-21 18:41 53.23122 2.43429 40358 ft 384 kts 304°
2026-04-21 18:41 53.26105 2.35493 40357 ft 384 kts 304°
2026-04-21 18:42 53.29142 2.27466 40353 ft 384 kts 304°
2026-04-21 18:42 53.32197 2.19376 40361 ft 385 kts 304°
2026-04-21 18:43 53.35207 2.11384 40360 ft 385 kts 304°
2026-04-21 18:43 53.38227 2.03340 40363 ft 385 kts 304°
2026-04-21 18:44 53.41242 1.95287 40370 ft 385 kts 304°
2026-04-21 18:44 53.44246 1.87237 40367 ft 385 kts 304°
2026-04-21 18:45 53.47243 1.79178 40368 ft 386 kts 304°
2026-04-21 18:45 53.50242 1.71087 40371 ft 386 kts 304°
2026-04-21 18:46 53.53250 1.62949 40373 ft 386 kts 304°
2026-04-21 18:46 53.56280 1.54722 40377 ft 386 kts 304°
2026-04-21 18:47 53.59338 1.46394 40374 ft 386 kts 304°
2026-04-21 18:47 53.62348 1.38166 40382 ft 386 kts 304°
2026-04-21 18:48 53.65334 1.29978 40382 ft 386 kts 303°
2026-04-21 18:48 53.68347 1.21691 40389 ft 386 kts 303°
2026-04-21 18:49 53.71365 1.13358 40390 ft 386 kts 303°
2026-04-21 18:49 53.73846 1.06491 40394 ft 386 kts 303°
2026-04-21 18:50 53.77293 0.96915 40394 ft 386 kts 303°
2026-04-21 18:50 53.80283 0.88579 40400 ft 386 kts 303°
2026-04-21 18:51 53.83277 0.80204 40397 ft 386 kts 303°
2026-04-21 18:51 53.86301 0.71717 40404 ft 387 kts 303°
2026-04-21 18:52 53.89319 0.63218 40409 ft 387 kts 303°
2026-04-21 18:52 53.92326 0.54717 40411 ft 387 kts 303°
2026-04-21 18:53 53.95320 0.46226 40411 ft 387 kts 303°
2026-04-21 18:53 53.98323 0.37680 40411 ft 388 kts 303°
2026-04-21 18:54 54.01276 0.29249 40426 ft 388 kts 302°
2026-04-21 18:54 54.04686 0.21121 40415 ft 386 kts 311°
2026-04-21 18:55 54.07872 0.14955 40423 ft 386 kts 313°
2026-04-21 18:55 54.12333 0.06380 40429 ft 386 kts 313°
2026-04-21 18:56 54.16167 -0.01031 40420 ft 387 kts 313°
2026-04-21 18:56 54.20009 -0.08489 40420 ft 387 kts 313°
2026-04-21 18:57 54.23857 -0.15989 40422 ft 387 kts 313°
2026-04-21 18:57 54.27697 -0.23497 40436 ft 387 kts 313°
2026-04-21 18:58 54.31517 -0.30991 40429 ft 388 kts 313°
2026-04-21 18:58 54.35285 -0.38407 40437 ft 388 kts 313°
2026-04-21 18:59 54.39060 -0.45860 40427 ft 388 kts 313°
2026-04-21 18:59 54.42785 -0.53236 40432 ft 388 kts 313°
2026-04-21 19:00 54.46437 -0.60489 40434 ft 388 kts 313°
2026-04-21 19:00 54.50063 -0.67712 40432 ft 388 kts 312°
2026-04-21 19:01 54.53734 -0.75046 40429 ft 389 kts 312°
2026-04-21 19:01 54.57372 -0.82338 40437 ft 388 kts 312°
2026-04-21 19:02 54.61064 -0.89759 40435 ft 389 kts 312°
2026-04-21 19:02 54.64765 -0.97221 40441 ft 389 kts 312°
2026-04-21 19:03 54.68383 -1.04539 40446 ft 389 kts 312°
2026-04-21 19:03 54.71959 -1.11790 40452 ft 389 kts 312°
2026-04-21 19:04 54.75510 -1.19016 40453 ft 389 kts 312°
2026-04-21 19:04 54.79034 -1.26206 40463 ft 389 kts 312°
2026-04-21 19:05 54.82558 -1.33417 40458 ft 389 kts 312°
2026-04-21 19:05 54.86046 -1.40576 40454 ft 390 kts 312°
2026-04-21 19:06 54.89593 -1.47878 40458 ft 385 kts 312°
2026-04-21 19:06 54.91389 -1.51587 39626 ft 380 kts 312°
2026-04-21 19:06 54.93105 -1.55134 38784 ft 364 kts 311°
2026-04-21 19:06 54.94727 -1.58494 37886 ft 355 kts 311°
2026-04-21 19:07 54.96283 -1.61717 37042 ft 347 kts 311°
2026-04-21 19:07 54.97838 -1.64944 36155 ft 339 kts 311°
2026-04-21 19:07 54.99358 -1.68101 35300 ft 333 kts 310°
2026-04-21 19:07 55.00936 -1.71382 34405 ft 339 kts 310°
2026-04-21 19:08 55.02523 -1.74685 33628 ft 346 kts 310°
2026-04-21 19:08 55.04150 -1.78076 32836 ft 352 kts 310°
2026-04-21 19:08 55.05801 -1.81525 31851 ft 356 kts 310°
2026-04-21 19:08 55.07528 -1.85137 30803 ft 358 kts 310°
2026-04-21 19:09 55.09284 -1.88834 29643 ft 360 kts 310°
2026-04-21 19:09 55.11032 -1.92511 28494 ft 361 kts 310°
2026-04-21 19:09 55.12703 -1.96457 27326 ft 365 kts 303°
2026-04-21 19:09 55.14135 -2.00640 26592 ft 356 kts 301°
2026-04-21 19:10 55.15481 -2.04731 26002 ft 347 kts 301°
2026-04-21 19:10 55.16789 -2.08738 25420 ft 338 kts 301°
2026-04-21 19:10 55.18043 -2.12582 24846 ft 332 kts 301°
2026-04-21 19:10 55.19277 -2.16363 24278 ft 327 kts 301°
2026-04-21 19:11 55.20527 -2.20193 23773 ft 322 kts 301°
2026-04-21 19:11 55.21750 -2.23941 23298 ft 317 kts 301°
2026-04-21 19:11 55.22889 -2.27433 22859 ft 313 kts 301°
2026-04-21 19:11 55.24009 -2.30872 22421 ft 311 kts 301°
2026-04-21 19:12 55.25119 -2.34282 21982 ft 308 kts 301°
2026-04-21 19:12 55.26202 -2.37613 21554 ft 306 kts 301°
2026-04-21 19:12 55.27348 -2.41139 21097 ft 304 kts 301°
2026-04-21 19:12 55.28525 -2.44770 20651 ft 303 kts 301°
2026-04-21 19:13 55.29709 -2.48425 20207 ft 303 kts 301°
2026-04-21 19:13 55.30931 -2.52201 19744 ft 302 kts 301°
2026-04-21 19:13 55.32108 -2.55862 19299 ft 302 kts 301°
2026-04-21 19:13 55.33273 -2.59473 18859 ft 301 kts 301°
2026-04-21 19:14 55.34435 -2.63077 18423 ft 301 kts 301°
2026-04-21 19:14 55.35595 -2.66682 17987 ft 301 kts 300°
2026-04-21 19:14 55.36752 -2.70284 17552 ft 301 kts 300°
2026-04-21 19:14 55.37875 -2.73783 17180 ft 304 kts 300°
2026-04-21 19:15 55.39013 -2.77339 16817 ft 306 kts 300°
2026-04-21 19:15 55.40179 -2.80986 16453 ft 308 kts 300°
2026-04-21 19:15 55.41375 -2.84730 16077 ft 309 kts 301°
2026-04-21 19:15 55.42587 -2.88532 15699 ft 310 kts 301°
2026-04-21 19:16 55.43769 -2.92251 15326 ft 310 kts 301°
2026-04-21 19:16 55.44948 -2.95960 14954 ft 311 kts 301°
2026-04-21 19:16 55.46028 -2.99749 14562 ft 313 kts 289°
2026-04-21 19:16 55.46552 -3.03943 14123 ft 315 kts 282°
2026-04-21 19:17 55.47461 -3.12461 13209 ft 318 kts 281°
2026-04-21 19:17 55.47920 -3.16791 12747 ft 318 kts 281°
2026-04-21 19:17 55.48377 -3.21072 12289 ft 319 kts 281°
2026-04-21 19:18 55.48820 -3.25200 11827 ft 316 kts 281°
2026-04-21 19:18 55.49268 -3.29385 11340 ft 311 kts 281°
2026-04-21 19:18 55.49815 -3.33537 10772 ft 307 kts 293°
2026-04-21 19:18 55.51232 -3.36849 10246 ft 298 kts 318°
2026-04-21 19:19 55.52868 -3.39541 9663 ft 293 kts 322°
2026-04-21 19:19 55.54571 -3.42135 8971 ft 289 kts 323°
2026-04-21 19:19 55.56265 -3.44667 8284 ft 285 kts 324°
2026-04-21 19:19 55.57947 -3.47169 7595 ft 282 kts 324°
2026-04-21 19:20 55.59608 -3.49639 6903 ft 280 kts 324°
2026-04-21 19:20 55.61268 -3.52107 6221 ft 277 kts 324°
2026-04-21 19:20 55.62888 -3.54523 5951 ft 263 kts 324°
2026-04-21 19:20 55.64388 -3.56761 5923 ft 257 kts 324°
2026-04-21 19:21 55.65891 -3.59014 5927 ft 254 kts 324°
2026-04-21 19:21 55.67350 -3.61197 5937 ft 252 kts 324°
2026-04-21 19:21 55.68873 -3.63472 5940 ft 251 kts 325°
2026-04-21 19:21 55.70364 -3.65695 5940 ft 250 kts 324°
2026-04-21 19:22 55.71833 -3.67885 5946 ft 247 kts 324°
2026-04-21 19:22 55.73270 -3.70023 5759 ft 252 kts 324°
2026-04-21 19:22 55.74707 -3.72161 5502 ft 257 kts 324°
2026-04-21 19:22 55.76130 -3.74287 5241 ft 257 kts 324°
2026-04-21 19:23 55.77554 -3.76331 4958 ft 248 kts 332°
2026-04-21 19:23 55.79251 -3.77231 4674 ft 230 kts
2026-04-21 19:23 55.80897 -3.76532 4372 ft 213 kts 36°
2026-04-21 19:23 55.81956 -3.74634 4120 ft 204 kts 54°
2026-04-21 19:24 55.82788 -3.72572 3968 ft 197 kts 58°
2026-04-21 19:24 55.83569 -3.70548 3953 ft 189 kts 58°
2026-04-21 19:24 55.84286 -3.68563 3990 ft 184 kts 60°
2026-04-21 19:24 55.85010 -3.66489 3842 ft 189 kts 60°
2026-04-21 19:25 55.85753 -3.64333 3478 ft 202 kts 60°
2026-04-21 19:25 55.86509 -3.62132 3170 ft 192 kts 60°
2026-04-21 19:25 55.87197 -3.60125 2897 ft 184 kts 60°
2026-04-21 19:25 55.87841 -3.58249 2668 ft 176 kts 60°
2026-04-21 19:26 55.88469 -3.56412 2433 ft 170 kts 59°
2026-04-21 19:26 55.89075 -3.54641 2208 ft 165 kts 59°
2026-04-21 19:26 55.89662 -3.52920 1990 ft 161 kts 59°
2026-04-21 19:26 55.90236 -3.51245 1778 ft 157 kts 59°
2026-04-21 19:27 55.90805 -3.49575 1558 ft 155 kts 59°
2026-04-21 19:27 55.91363 -3.47938 1349 ft 152 kts 59°
2026-04-21 19:27 55.91916 -3.46317 1153 ft 146 kts 59°
2026-04-21 19:27 55.92394 -3.44913 986 ft 118 kts 59°
2026-04-21 19:28 55.92809 -3.43696 795 ft 105 kts 59°
2026-04-21 19:28 55.93174 -3.42631 649 ft 98 kts 58°
2026-04-21 19:28 55.93520 -3.41604 523 ft 97 kts 59°
2026-04-21 19:28 55.93869 -3.40575 385 ft 98 kts 59°
2026-04-21 19:29 55.94219 -3.39537 260 ft 95 kts 59°
2026-04-21 19:29 55.94553 -3.38564 116 ft 88 kts 59°
2026-04-21 19:29 55.94839 -3.37722 94 ft 67 kts 58°
2026-04-21 19:29 55.95044 -3.37116 93 ft 49 kts 58°
2026-04-21 19:30 55.95200 -3.36654 95 ft 35 kts 58°
2026-04-21 19:30 55.95258 -3.36437 97 ft 12 kts 109°
2026-04-21 19:30 55.95191 -3.36350 97 ft 11 kts 148°
2026-04-21 19:30 55.95171 -3.36329 97 ft 0 kts 148°
2026-04-21 19:31 55.95169 -3.36327 97 ft 2 kts 147°
2026-04-21 19:31 55.95147 -3.36251 97 ft 11 kts 61°
2026-04-21 19:32 55.95200 -3.36085 97 ft 18 kts 58°
2026-04-21 19:32 55.95161 -3.35941 97 ft 16 kts 149°
2026-04-21 19:32 55.95083 -3.35776 99 ft 18 kts 129°
2026-04-21 19:32 55.95018 -3.35573 100 ft 18 kts 118°
2026-04-21 19:33 55.94975 -3.35435 101 ft 18 kts 118°
2026-04-21 19:33 55.94891 -3.35160 103 ft 21 kts 118°
2026-04-21 19:33 55.94817 -3.34918 105 ft 22 kts 118°
2026-04-21 19:33 55.94766 -3.34741 107 ft 14 kts 62°
2026-04-21 19:34 55.94830 -3.34556 109 ft 17 kts 59°
2026-04-21 19:34 55.94881 -3.34367 114 ft 10 kts 112°
2026-04-21 19:34 55.94867 -3.34383 113 ft 0 kts 294°